STARLINK-1167, 45071

Orbit data source: Space-Track

STARLINK-1167, 45071 is a payload satellite owned by SpaceX/Seattle (US) in LEO that was launched on Wed, 29 Jan 2020 UTC via an FALCON 9 launch vehicle from the Air Force Eastern Test Range (AFETR). Payload-class satellites include a variety of spacecraft equipped with specific instruments for various scientific and technological missions. These include communications satellites like Starlink; space stations such as the ISS; scientific satellites like the Hubble; Earth observation satellites from companies like Planet Labs, Umbra, and HawkEye 360; GPS; miniature CubeSats for education and research; and military/defense satellites.

Loading next visibility...
Identifier
45071, 2020-006AD
Orbit
LEO
Country
Flag of USUS
Related business
Manufacturer
SpaceX/Seattle
Mission
Operational Commercial Communications
Bus & Motor
STARLINK, Unknown motor
Mass
260 kg wet, ~248 kg dry
Launch date (UTC)
2020-01-29 (6 years ago)
Launch vehicle
FALCON 9
Launch site
Air Force Eastern Test Range (AFETR)
Object type
Payload
Rocket body
Debris
Shape & HBR
Box + 1 Pan, 10.1 m
Radar Cross Section
13.562 m², Large (>1 m²)

Expand to show TLE details & history
Last TLE update: 11 hours ago

TLE from 11 hours ago
0 STARLINK-1167
1 45071U 20006AD  25354.04074058  .00002079  00000-0  15841-3 0  9992
2 45071  53.0549 264.1758 0001376  94.1734 265.9413 15.06398213324730
Epoch: 2025-12-20T00:58Z
TLE epoch observation values (Epoch: 2025-12-20T00:58:39.986Z)
Latitude
0.00006°
Longitude
160.63599°
Altitude
548.164 km
Speed
7.589 km/s
True Right ascension
17h 36m 42s
True Declination
0° 00' 00"
Sunlit
Object was in daylight at epoch
Visualization orbit readout
Latitude
Unknown
Longitude
Unknown
Altitude
Unknown
Speed
Unknown
Apparent Right ascension
Unknown
Apparent Declination
Unknown
Sunlit
N/A
Visualization observer readout
Local Sidereal Time
10:30:32
Azimuth
Unknown
Elevation
Unknown
Doppler factor
Unknown
Orbital elements
Apogee altitude
548.441 km
Perigee altitude
546.535 km
Semi-major axis
6,925.625 km
Eccentricity
0.00014
Inclination
53.0549°
RAAN
264.1758°
Arg. of periapsis
94.1734°
True anomaly
265.92557°
Mean anomaly
265.9413°
Eccentric anomaly
265.93344°
Mean motion
3.76578 °/min
Orbital period
95.6 mins
BSTAR
0.00015841
Loading maneuver chart data...
Computing Atmospheric mass density...

Documentation

Showing up to 5 results
|